PDT,Max TemperatureF,Mean TemperatureF,Min TemperatureF,Max Dew PointF,MeanDew PointF,Min DewpointF,Max Humidity, Mean Humidity, Min Humidity, Max Sea Level PressureIn, Mean Sea Level PressureIn, Min Sea Level PressureIn, Max VisibilityMiles, Mean VisibilityMiles, Min VisibilityMiles, Max Wind SpeedMPH, Mean Wind SpeedMPH, Max Gust SpeedMPH,PrecipitationIn, CloudCover, Events, WindDirDegrees
2013-4-1,63,52,42,49,47,43,100,88,57,30.19,30.09,30.02,10,10,2,14,4,18,0.00,6,,234
2013-4-2,56,51,46,48,47,45,100,88,74,30.23,30.20,30.17,10,10,5,9,4,,0.00,8,,275
2013-4-3,60,50,39,47,44,39,100,82,57,30.22,30.15,29.96,10,8,1,6,2,,0.00,5,,318
2013-4-4,57,52,47,54,50,45,100,92,78,29.96,29.75,29.67,10,9,3,21,4,28,0.18,7,Rain,173
2013-4-5,56,52,47,54,51,48,100,95,82,29.91,29.84,29.75,10,9,2,17,11,24,0.90,8,Rain,198
2013-4-6,52,46,42,49,45,41,100,91,71,29.97,29.87,29.73,10,9,2,21,10,34,0.58,7,Rain,197
2013-4-7,49,44,39,45,42,39,100,94,75,29.92,29.70,29.50,10,9,5,16,9,23,0.91,7,Rain,227
2013-4-8,54,47,40,45,42,39,100,80,65,30.30,30.13,29.95,10,10,10,13,8,,0.00,7,Rain,208
2013-4-9,55,44,33,46,39,34,100,87,60,30.37,30.32,30.22,10,7,1,7,2,,0.00,6,,171
2013-4-10,56,51,46,52,47,39,100,84,58,30.29,30.09,29.96,10,9,5,24,13,36,0.22,7,Rain,205
2013-4-11,55,48,41,42,40,36,93,76,54,30.32,30.28,30.22,10,10,10,15,9,24,0.00,6,,215
2013-4-12,47,42,37,45,41,35,100,91,70,30.20,29.88,29.74,10,9,3,25,7,33,0.24,7,Rain,190
2013-4-13,48,42,37,43,39,31,100,86,74,30.03,29.94,29.82,10,10,4,22,15,31,0.11,7,Rain,206
2013-4-14,50,42,35,40,38,35,100,82,62,30.04,29.99,29.94,10,9,1,14,6,17,0.35,6,Rain-Thunderstorm,219
2013-4-15,55,44,33,40,37,32,100,84,48,30.20,30.04,29.96,10,9,1,8,2,,0.00,7,,46
2013-4-16,57,45,34,45,38,32,100,88,42,30.42,30.30,30.22,10,6,0,15,2,18,0.00,5,Fog,40
2013-4-17,61,46,32,41,37,32,99,71,38,30.49,30.45,30.41,10,10,10,16,5,23,0.00,4,,221
2013-4-18,54,46,38,48,44,36,96,87,70,30.49,30.41,30.25,10,10,10,14,7,,0.05,8,Rain,192
2013-4-19,55,52,48,54,50,46,100,96,82,30.25,30.15,30.08,10,9,3,15,9,20,0.47,8,Rain,203
2013-4-20,57,51,45,46,44,42,93,81,59,30.32,30.28,30.24,10,10,10,17,11,23,0.00,7,Rain,209
2013-4-21,55,47,38,45,42,38,100,82,56,30.39,30.28,30.24,10,10,9,15,8,21,0.03,6,Rain,197
2013-4-22,60,46,32,42,33,18,100,67,20,30.53,30.48,30.43,10,10,10,14,6,20,0.00,2,,22
2013-4-23,63,46,30,36,31,22,98,60,22,30.44,30.34,30.24,10,10,10,15,5,18,0.00,2,,29
2013-4-24,68,50,33,40,35,28,97,59,22,30.34,30.24,30.09,10,10,10,9,4,,0.00,0,,5
2013-4-25,71,54,36,49,40,35,98,62,31,30.18,30.10,30.06,10,10,9,7,3,,0.00,0,,252
2013-4-26,70,56,42,49,43,28,100,80,25,30.27,30.24,30.19,10,8,0,8,2,,0.00,3,Fog,216
2013-4-27,56,52,49,52,47,37,100,82,52,30.27,30.23,30.20,10,10,6,16,9,,0.03,8,Rain,203
2013-4-28,60,53,46,49,45,39,100,81,45,30.24,30.19,29.99,10,10,8,18,9,26,0.10,7,Rain,219
2013-4-29,55,48,39,49,40,31,100,73,42,30.19,30.06,29.95,10,10,6,26,16,33,0.02,3,Rain,224
2013-4-30,56,44,33,36,32,27,92,62,33,30.47,30.33,30.20,10,10,10,12,6,,0.00,2,,162